Location: Nirvana
(45.0297°N, 77.2628°W)
Time: 04:43:42
(UTC-04:00)

OTV 5 (USA 277) - Visible Passes

Search period start: 20 April 2019 00:00
Search period end: 30 April 2019 00:00
Orbit: 310 x 325 km, 54.5° (Epoch: 16 April)

Date Brightness Start Highest point End Pass type
(mag) Time Alt. Az. Time Alt. Az. Time Alt. Az.
20 Apr ? 04:21:21 13° NNW 04:23:21 27° NNE 04:25:43 10° E visible
21 Apr ? 04:36:14 16° NW 04:38:13 59° NNE 04:40:52 10° ESE visible
22 Apr ? 04:51:41 24° WNW 04:52:57 49° SW 04:55:33 10° SE visible
22 Apr ? 21:12:17 10° S 21:12:33 11° S 21:12:33 11° S visible
23 Apr ? 05:07:59 18° SW 05:07:59 18° SW 05:09:31 10° S visible
23 Apr ? 21:26:12 10° SW 21:28:50 46° SE 21:29:39 33° E visible
24 Apr ? 21:40:52 10° WSW 21:43:33 63° NW 21:45:51 13° NE visible
24 Apr ? 23:16:37 10° NW 23:16:50 11° NW 23:16:50 11° NW visible
25 Apr ? 21:55:58 10° W 21:58:25 29° NNW 22:00:52 10° NE visible
26 Apr ? 22:11:24 10° WNW 22:13:23 18° NNW 22:15:22 10° NNE visible
27 Apr ? 20:50:57 10° WSW 20:53:33 40° NNW 20:56:10 10° NE visible
27 Apr ? 22:27:01 10° NW 22:28:28 13° N 22:29:54 10° NNE visible
28 Apr ? 21:06:14 10° WNW 21:08:29 22° NNW 21:10:42 10° NNE visible
28 Apr ? 22:42:31 10° NNW 22:43:35 12° N 22:44:38 10° NNE visible
29 Apr ? 21:21:47 10° NW 21:23:30 15° NNW 21:25:14 10° NNE visible
29 Apr ? 22:57:32 10° NNW 22:58:43 12° N 22:59:07 12° NNE visible
